Regional Weather Roundup
Issued by NWS

Home | Current Version | Previous Version | Graphics & Text | Print | Product List | Glossary On
Versions: 1 2 3 4 5 6 7 8 9 10 11 12 13 14 15 16 17 18 19 20 21 22 23 24 25 26 27 28 29 30 31 32 33 34 35 36 37 38 39 40 41 42 43 44 45 46 47 48 49 50
274
ASUS43 KMPX 062210
RWRMN
WEATHER ROUNDUP FOR MINNESOTA
NATIONAL WEATHER SERVICE TWIN CITIES/CHANHASSEN MN
400 PM CST TUE DEC 06 2016


NOTE: "FAIR" INDICATES FEW OR NO CLOUDS BELOW 12,000 FEET WITH NO
SIGNIFICANT WEATHER AND/OR OBSTRUCTIONS TO VISIBILITY. N/A MEANS
CURRENT SKY AND/OR WEATHER CONDITIONS ARE NOT AVAILABLE.

MNZ060>063-068>070-062300-
   Twin Cities Metro

CITY           SKY/WX    TMP DP  RH WIND       PRES   REMARKS
TWIN CITIES    FLURRIES  23  12  62 W17G36    29.72R WCI   9
ST PAUL        CLOUDY    24  14  65 SW20G31   29.73R WCI  10
CRYSTAL        FLURRIES  23  11  60 SW16G30   29.70R WCI  10
BLAINE         FLURRIES  25  16  68 SW16G30   29.68R WCI  12
LAKEVILLE      FLURRIES  21  16  79 W22G29    29.74R WCI   5
EDEN PRAIRIE   CLOUDY    23  12  62 W23G32    29.72R WCI   7
SOUTH ST PAUL  CLOUDY    24  13  62 W21G32    29.72S WCI  10
LAKE ELMO      FLURRIES  25  16  68 SW20G26   29.71R WCI  11
$$
MNZ001>005-007-008-013>017-022>024-027-028-062300-
   Northwest Minnesota

CITY           SKY/WX    TMP DP  RH WIND       PRES   REMARKS
BEMIDJI        FLURRIES  25  23  91 W14       29.31R WCI  13
HALLOCK        LGT SNOW  25  21  86 NW3       29.44R VSB 1
ROSEAU         LGT SNOW  23  18  80 N5        29.41R WCI  17
WARROAD        LGT SNOW  23  19  86 NW3       29.41R
THIEF RVR FALL FLURRIES  22  19  89 NW12      29.44R WCI  10
CROOKSTON      LGT SNOW  25  23  93 NW28G38   29.46R VSB 3/4 WCI   8
FOSSTON        LGT SNOW  19  18  93 W15G23    29.41R WCI   5
DETROIT LAKES  LGT SNOW  21  19  93 W28G39    29.48R VSB 3/4 WCI   3
MOORHEAD       MIX PCPN  18  16  93 W36G43    29.57R VSB 1/2 WCI  -3
PARK RAPIDS    HVY SNOW  21  16  81 W24       29.39R VSB 1/4 WCI   4
$$
MNZ006-009>011-018-025>026-062300-
   North Central Minnesota

CITY           SKY/WX    TMP DP  RH WIND       PRES   REMARKS
BAUDETTE       LGT SNOW  22  18  85 NE5       29.38R FOG     WCI  16
FLAG ISLAND    LGT SNOW  23  19  86 CALM      29.39R
INTL FALLS     SNOW      20  17  88 SE8       29.38F VSB 1/2 WCI  10
WASKISH        LGT SNOW  23  19  86 NE6       29.34R WCI  16
BIG FORK       LGT SNOW  21  19  93 S7        29.34F VSB 3/4 WCI  13
LONGVILLE      LGT SNOW  21  18  86 SW16G23   29.38S VSB 1   WCI   7
GRAND RAPIDS   LGT SNOW  21  18  88 S14       29.40R FOG     WCI   8
CRANE LAKE     LGT SNOW  19  18  93 SE3       29.44S
ORR            LGT SNOW  19  14  79 SE7       29.37S WCI  10
COOK           LGT SNOW  19  16  86 SE10G17   29.40F WCI   8
$$
MNZ012-019>021-037-062300-
   Northeast Minnesota

CITY           SKY/WX    TMP DP  RH WIND       PRES   REMARKS
DULUTH         LGT SNOW  21  16  81 SW15G24   29.47F WCI   8
ELY            FLURRIES  19  12  73 S13       29.44S WCI   7
HIBBING        LGT SNOW  19  16  88 S9G17     29.40F FOG     WCI   8
EVELETH        LGT SNOW  20  16  83 S12G18    29.43F WCI   8
DULUTH HARBOR  FLURRIES  27  18  69 S17G25    29.54F WCI  14
TWO HARBORS    FLURRIES  25  18  74 SW14G23   29.49F WCI  13
SILVER BAY     LGT SNOW  21  18  86 SW10G16   29.49S WCI  10
GRAND MARAIS     N/A     31  24  75 SW28G33   29.53R WCI  17
G MARAIS ARPRT LGT SNOW  21  16  79 S13G22    29.45S WCI   9
$$
MNZ029>031-032-039>041-046>048-054>057-064-062300-
   West Central Minnesota

CITY           SKY/WX    TMP DP  RH WIND       PRES   REMARKS
FERGUS FALLS   SNOW      18  16  93 W32G38    29.65R VSB 1/2 WCI  -3
WHEATON        LGT SNOW  19  16  86 W26G40    29.72R WCI   1
MORRIS         LGT SNOW  19  12  73 W33G47    29.68R WCI   0
ALEXANDRIA     SNOW      18  15  88 W28G37    29.60R VSB 1/4 WCI  -1
ELBOW LAKE     SNOW      17  15  93 NW30G43   29.64R VSB 1/2 WCI  -3
WADENA         SNOW      18  16  93 W26G39    29.48R VSB 1/2 WCI  -1
GLENWOOD       LGT SNOW  18  16  93 W33G39    29.63R VSB 3/4 WCI  -3
BENSON         FLURRIES  19  12  73 NW32G39   29.71R WCI   0
ORTONVILLE     CLOUDY    18  10  73 W25G37    29.75R WCI  -1
MADISON        MOCLDY    21  10  63 W33G43    29.78R WCI   2
WILLMAR        FLURRIES  21  16  79 W28G36    29.73R WCI   3
$$
MNZ033>034-036-042>043-049>051-058-059-062300-
   Central Minnesota

CITY           SKY/WX    TMP DP  RH WIND       PRES   REMARKS
ST CLOUD       LGT SNOW  21  15  78 SW22G30   29.64R WCI   5
PAYNESVILLE    LGT SNOW  19  15  82 W29G36    29.69R WCI   1
AITKIN         FLURRIES  25  14  63 SW16G23   29.46R WCI  12
PINE RIVER     LGT SNOW  19  16  86 SW13G24   29.46S WCI   7
BRAINERD       LGT SNOW  20  15  81 SW21G35   29.50R WCI   4
STAPLES        LGT SNOW  18  16  93 W21G26    29.50R WCI   1
LONG PRAIRIE   LGT SNOW  19  14  79 SW20G31   29.58R WCI   4
LITTLE FALLS   LGT SNOW  21  14  73 SW16G26   29.58R WCI   7
LITCHFIELD     LGT SNOW  21  16  79 W15G29    29.71R WCI   8
BUFFALO        LGT SNOW  22  15  75 SW13G21   29.70R WCI  10
MAPLE LAKE     LGT SNOW  23  17  77 SW20G28   29.69R WCI   8
HUTCHINSON     CLOUDY    22  14  72 W29G37    29.73R WCI   4
$$
MNZ037-044-045-052-053-062300-
   East Central Minnesota

CITY           SKY/WX    TMP DP  RH WIND       PRES   REMARKS
PRINCETON      FLURRIES  23  16  74 SW18G30   29.63R WCI   9
MORA           LGT SNOW  21  16  79 SW12G25   29.60R WCI   9
CAMBRIDGE      LGT SNOW  25  16  68 SW13G21   29.62R WCI  13
RUSH CITY      CLOUDY    23  16  74 SW17G24   29.62S WCI   9
MOOSE LAKE     FLURRIES  23  18  80 SW12G24   29.50S WCI  12
HINCKLEY       LGT SNOW  23  19  86 SW15G25   29.58R WCI  10
CLOQUET        LGT SNOW  21  16  79 S15G22    29.48S WCI   8
MCGREGOR       CLOUDY    23  19  86 SW16G25   29.48R WCI  10
$$
MNZ071>073-080-081-089-090-097-098-062300-
   Southwest Minnesota

CITY           SKY/WX    TMP DP  RH WIND       PRES   REMARKS
MONTEVIDEO     CLOUDY    21  10  63 NW24G33   29.77R WCI   4
GRANITE FALLS  CLOUDY    22  13  67 W31G40    29.81R WCI   4
CANBY          CLEAR     19  10  68 W33G44    29.81R WCI  -2
MARSHALL       FLURRIES  18   9  68 W29G39    29.79R WCI  -1
REDWOOD FALLS  CLOUDY    21   8  57 W32G40    29.79R WCI   2
OLIVIA         PTCLDY    21  12  68 W29G38    29.75R WCI   3
PIPESTONE      FLURRIES  18  10  73 W31G38    29.83R WCI  -2
WINDOM         PTCLDY    19  12  73 W25G35    29.80R WCI   2
WORTHINGTON    FLURRIES  20  12  71 W26G36    29.83R WCI   2
JACKSON        CLOUDY    21  12  68 W28G35    29.82R WCI   3
TRACY          PTCLDY    19  11  71 W16G26    29.81R WCI   5
SLAYTON        MOCLDY    17  10  73 W31G37    29.80R WCI  -2
$$
MNZ065>067-074>077-082>085-091>093-062300-
   South Central Minnesota

CITY           SKY/WX    TMP DP  RH WIND       PRES   REMARKS
MANKATO        FLURRIES  22  13  68 W23G33    29.78R WCI   6
NEW ULM        CLOUDY    21  10  63 W26G37    29.80R WCI   4
ST JAMES       CLOUDY    21  12  68 W28G37    29.82R WCI   3
FAIRMONT       CLEAR     23  13  65 W24G32    29.83R WCI   7
GLENCOE        CLOUDY    23  17  76 W13G26    29.74R WCI  11
FARIBAULT      CLOUDY    25  16  68 W20G25    29.77R WCI  11
OWATONNA       CLOUDY    23  14  68 W23G32    29.77S WCI   7
WASECA         CLOUDY    23  16  74 W24G31    29.79S WCI   7
ALBERT LEA     CLOUDY    27  18  69 W18G30    29.80R WCI  13
$$
MNZ078>079-086>088-094>096-062300-
   Southeast Minnesota

CITY           SKY/WX    TMP DP  RH WIND       PRES   REMARKS
ROCHESTER      CLOUDY    22  16  78 W24       29.77R HAZE    WCI   5
RED WING       CLOUDY    25  14  63 W18G28    29.74S WCI  11
STANTON        FLURRIES  25  15  66 SW18G28   29.75R WCI  11
DODGE CENTER   FLURRIES  21  16  79 W24G31    29.76R WCI   4
WINONA         CLOUDY    28  19  69 W9G16     29.79S WCI  20
AUSTIN         CLOUDY    23  16  74 W20G28    29.80R WCI   8
PRESTON        CLOUDY    22  16  76 W17       29.79R WCI   8
$$
ABBREVIATIONS USED IN REMARKS
   TC - TEMPERATURES IN CELSIUS
  WCI - WIND CHILL INDEX
   HX - HEAT INDEX
  VSB - VISIBILITY
$$




USA.gov is the U.S. government's official web portal to all federal, state and local government web resources and services.